Location: B�singen
(46.8923°N, 7.2277°E)
Time: 04:02:05
(UTC+00:00)

Daily predictions for brighter satellites

Satellite Brightness Start Highest point End
(mag) Time Altitude Azimuth Time Altitude Azimuth Time Altitude Azimuth
ATLAS CENTAUR R/B 4.2 00:07:38 10° WSW 00:13:32 69° NNW 00:29:48 10° ENE
Cosmos 1825 2.7 00:13:02 39° SE 00:13:52 47° E 00:17:31 10° NNE
DELTA 2 R/B (1) 4.4 00:16:57 29° SSE 00:16:57 29° SSE 00:21:21 10° ESE
Cosmos 540 Rocket 4.2 00:15:11 28° SSE 00:17:08 40° ESE 00:21:53 10° NE
Cosmos 1408 2.5 00:19:17 57° SSW 00:19:58 79° W 00:23:40 10° N
Cosmos 990 Rocket 3.9 00:15:06 10° NNW 00:20:19 79° WSW 00:22:37 34° S
SL-16 R/B 3.1 00:19:56 19° WSW 00:23:42 43° NW 00:29:07 10° NNE
Cosmos 1242 Rocket 4.1 00:21:04 10° N 00:24:16 30° ENE 00:26:09 19° ESE
Cosmos 405 Rocket 2.6 00:23:36 53° SSE 00:24:21 74° E 00:28:02 10° NNE
Cosmos 841 Rocket 4.3 00:23:03 27° SSE 00:25:10 40° ESE 00:29:58 10° NE
Cosmos 2058 3.4 00:24:22 35° SSE 00:25:41 51° E 00:29:40 10° NNE
Cosmos 1656 Rocket 3.8 00:20:17 10° NNW 00:26:01 73° ENE 00:30:16 18° SE
Cosmos 2221 3.1 00:22:05 10° N 00:26:17 50° ENE 00:28:23 26° SE
USA 229 DEB 3.6 00:22:35 27° SW 00:26:20 90° W 00:33:15 10° NE
USA 229 3.6 00:22:43 28° SW 00:26:26 89° SE 00:33:21 10° NE
Meteor 2-13 Rocket 4.4 00:23:59 32° S 00:27:06 88° W 00:33:18 10° N
Cosmos 2237 Rocket 4.4 00:23:21 10° W 00:27:20 19° NW 00:31:18 10° N
X-37B 1.5 00:28:47 37° ESE 00:28:47 37° ESE 00:30:54 10° E
Cosmos 1898 Rocket 3.4 00:28:23 10° NNW 00:33:38 76° WSW 00:36:10 31° S
Cosmos 1937 Rocket 3.6 00:28:35 10° NNW 00:33:57 81° ENE 00:37:19 23° SSE
Nadezhda 4 Rocket 4.2 00:30:48 27° SSE 00:34:15 65° E 00:40:18 10° NNE
NOSS 3-1 (C) 3.9 00:31:11 18° WSW 00:35:12 55° NW 00:41:33 10° NE
Cosmos 2369 Rocket 2.2 00:30:26 10° NNW 00:36:07 64° WSW 00:38:58 29° S
YAOGAN 11 4.0 00:35:34 36° S 00:37:23 83° WSW 00:41:55 10° NNW
Aureole 3 Rocket 4.3 00:34:22 10° N 00:38:02 38° ENE 00:41:59 14° SE
Cosmos 1356 3.9 00:37:29 40° WSW 00:38:04 45° WNW 00:41:21 10° N
USA 307 4.0 00:38:07 26° SE 00:38:31 27° SE 00:42:06 10° ENE
SJ 16-02 2.9 00:36:20 10° NW 00:39:32 20° W 00:40:01 20° WSW
CREW DRAGON DEMO-1 DEB 3.0 00:40:05 52° N 00:40:05 52° N 00:42:15 10° ENE
USA 215 4.3 00:39:19 10° NE 00:45:27 45° NNW 00:51:35 10° W
NOSS 3-1 (A) 3.4 00:42:41 25° SW 00:46:01 73° NW 00:52:27 10° NE
ATLAS 5 CENTAUR R/B 2.6 00:48:04 23° SE 00:49:07 27° ESE 00:52:44 10° ENE
Cosmos 2263 4.2 00:44:08 10° NNW 00:49:47 68° WSW 00:53:06 25° S
CZ-4 R/B 3.7 00:46:43 10° NNE 00:51:24 79° WNW 00:53:33 32° SSW
Helios 1B rocket 3.7 00:48:22 10° NNE 00:52:05 32° E 00:54:08 20° SE
USA 308 3.7 00:53:27 31° SSE 00:54:21 34° SE 00:58:13 10° ENE
Cosmos 1633 3.5 00:53:22 26° SE 00:54:44 38° E 00:58:02 10° NNE
Cosmos 1932 4.4 00:49:03 10° NW 00:55:13 66° WSW 01:00:03 17° SSE
ADEOS Rocket 4.3 00:48:34 10° SE 00:55:19 44° ENE 01:01:29 10° N
Meteor 2-2 Rocket 4.4 00:50:35 10° NNW 00:56:35 69° W 01:00:07 26° S
CZ-3B R/B 4.1 00:47:53 10° WNW 00:57:14 39° N 01:00:27 10° ENE
UNK 4.2 00:54:25 16° SSE 00:57:55 58° ENE 01:02:28 10° N
Helios 1A 3.2 01:00:06 34° SSW 01:01:31 51° W 01:05:37 10° NNW
Cosmos 1606 2.7 00:58:32 10° N 01:02:23 77° E 01:04:12 29° SSE
Cosmos 1570 Rocket 4.3 01:01:44 26° S 01:04:35 59° ESE 01:09:44 10° NNE
SL-16 R/B 2.6 00:59:52 14° SSE 01:05:13 81° ENE 01:11:25 10° NNW
Cosmos 372 Rocket 4.0 01:03:39 10° NNW 01:08:56 89° WSW 01:13:11 16° SSE
USA 305 3.2 01:10:31 32° SSW 01:12:06 50° SE 01:16:14 10° ENE
USA 290 2.9 01:11:15 33° SSE 01:12:14 45° ESE 01:15:21 10° NE
CZ-4C R/B 4.4 01:13:57 10° ESE 01:15:01 11° ESE 01:16:09 10° E
Lacrosse 4 Rocket 1.7 01:11:04 10° NNW 01:15:10 65° NE 01:19:11 10° SE
Cosmos 1092 Rocket 4.0 01:11:05 22° S 01:15:15 80° E 01:21:26 10° N
Cosmos 2098 Rocket 3.5 01:15:09 26° SSW 01:18:09 63° W 01:22:35 10° N
Cosmos 1763 Rocket 4.5 01:15:44 18° WSW 01:18:54 37° WNW 01:23:40 10° N
BREEZE-M R/B 3.1 01:18:11 29° SSW 01:19:31 43° SE 01:24:11 10° ENE
Cosmos 2208 Rocket 4.3 01:16:33 23° S 01:19:55 66° ESE 01:25:20 10° NNE
USA 267 4.3 01:19:19 21° SW 01:20:29 22° SW 01:25:22 10° WNW
Meteor 2-19 Rocket 4.4 01:16:27 22° S 01:20:38 87° E 01:26:48 10° N
Resurs 1-4 Rocket 2.1 01:15:37 10° NNE 01:20:58 89° ESE 01:24:24 23° SSW
Cosmos 1437 Rocket 3.7 01:17:51 10° NNW 01:21:17 30° W 01:22:18 26° WSW
OE (NEXTSAT) 4.2 01:22:34 24° WSW 01:24:31 74° S 01:27:58 10° E
Meteor 1-29 4.2 01:21:45 10° NNE 01:24:55 33° E 01:26:57 18° SSE
SL-4 R/B 3.2 01:22:34 10° WNW 01:26:06 39° N 01:29:26 10° ENE
Cosmos 1943 Rocket 4.0 01:26:21 10° WNW 01:28:28 12° W 01:29:31 12° WSW
Cosmos 1842 Rocket 4.4 01:27:25 10° NNW 01:31:22 35° W 01:33:14 24° SW
NOSS 2-2 (D) 3.0 01:30:21 30° SSW 01:31:50 67° SE 01:35:31 10° NE
NPP 3.6 01:26:43 10° NNE 01:32:10 88° ESE 01:35:57 20° SSW
ADEOS II 2.6 01:27:25 10° NNE 01:32:36 54° E 01:36:50 15° S
USA 306 2.9 01:32:05 25° SW 01:34:27 71° SE 01:38:42 10° ENE
Cosmos 921 Rocket 3.2 01:32:38 25° SW 01:34:54 57° WNW 01:39:03 10° NNE
Lacrosse 5 rocket 3.5 01:32:03 10° NW 01:35:08 26° NNE 01:38:15 10° E
Meteor 2-3 Rocket 4.1 01:31:29 15° S 01:36:07 58° E 01:41:35 10° NNE
FALCON 9 DEB 3.0 01:33:26 10° WNW 01:36:48 63° SW 01:40:09 10° SE
Cosmos 1943 3.9 01:33:25 17° WSW 01:37:27 44° NW 01:42:53 10° NNE
CZ-2D R/B 2.2 01:34:29 10° N 01:39:40 67° WNW 01:43:15 20° SSW
IDEFIX/ARIANE 42P 3.6 01:42:01 10° NNE 01:46:57 40° E 01:51:50 10° SSE
Cosmos 2151 2.9 01:44:56 21° SSW 01:47:41 77° W 01:51:54 10° N
Cosmos 1825 4.4 01:47:48 11° W 01:49:39 14° WNW 01:51:44 10° NNW
EXPRESS MD2 4.5 01:41:11 10° WSW 01:50:56 87° SSE 01:55:28 10° ENE
AQUA 3.8 01:46:59 10° N 01:51:46 74° WNW 01:55:17 18° SSW
Cosmos 1076 Rocket 4.2 01:49:45 20° SW 01:52:13 39° WNW 01:56:14 10° N
Cosmos 1437 3.7 01:52:54 10° NW 01:55:15 24° W 01:55:51 22° WSW
Meteor 1-26 Rocket 4.4 01:49:46 10° N 01:55:38 85° E 02:01:38 10° SSE
Cosmos 1242 Rocket 4.2 01:56:17 10° NW 01:58:53 19° W 02:00:05 16° WSW
DELTA 2 R/B (1) 4.0 01:57:41 12° WSW 02:02:21 40° S 02:07:30 10° ESE
Cosmos 2221 4.4 02:00:46 10° NW 02:03:24 16° W 02:05:13 13° WSW
X-37B 0.8 02:01:11 10° W 02:04:15 45° SSW 02:07:18 10° ESE
CBERS-1 4.3 02:01:12 10° NNE 02:06:20 67° ESE 02:11:26 10° S
BREEZE-M DEB (TANK) 1.6 02:04:08 10° WNW 02:06:30 65° NNE 02:09:02 10° E
IRS-1D 3.6 02:01:24 10° NNE 02:06:35 83° ESE 02:11:14 12° SSW
Cosmos 1812 3.9 02:06:28 10° N 02:10:09 42° ENE 02:13:48 10° SSE
Cosmos 1553 Rocket 4.0 02:04:11 10° NNW 02:10:30 76° W 02:16:40 10° S
NOSS 2-2 (E) 4.0 02:08:02 13° WSW 02:10:49 40° NW 02:14:31 10° NNE
Cosmos 2292 Rocket 2.6 02:09:53 18° SSW 02:11:55 63° W 02:14:53 10° N
FALCON 9 DEB 3.1 02:12:38 10° WNW 02:15:46 74° NNE 02:18:54 10° ESE
S3M 4.1 02:10:23 10° N 02:16:34 83° E 02:22:48 10° S
GPS 2-04 Rocket1 4.4 02:15:43 15° SSW 02:16:46 16° S 02:19:13 10° SE
Cosmos 1782 2.8 02:13:05 10° NNW 02:17:06 74° W 02:21:05 10° S
USA 281 3.3 02:11:02 10° SSE 02:17:37 87° ENE 02:24:14 10° NNW
Meteor 2-14 Rocket 4.5 02:11:44 10° S 02:17:50 89° W 02:24:01 10° N
USA 307 3.1 02:14:12 11° WSW 02:18:13 68° NNW 02:22:27 10° NE
Cosmos 1271 Rocket 2.8 02:15:17 10° N 02:19:02 77° ENE 02:22:48 10° SSE
MSX 4.4 02:13:42 10° NNE 02:19:24 57° E 02:25:03 10° S
NOSS 2-2 (C) 4.1 02:21:26 11° WSW 02:24:29 38° NW 02:28:07 10° NNE
CZ-4C R/B 2.9 02:21:35 10° SSE 02:25:02 86° WSW 02:28:32 10° NNW
Helios 1B rocket 3.9 02:23:50 10° N 02:27:11 25° WNW 02:30:26 11° WSW
ERBS 2.6 02:24:39 14° SSW 02:27:12 51° SE 02:30:22 10° ENE
Cosmos 1328 Rocket 3.5 02:26:44 10° NNW 02:31:06 79° W 02:35:28 10° S
NOSS 3-2 (A) 4.3 02:24:17 10° NW 02:31:45 77° NE 02:40:17 10° SE
FALCON 9 DEB 2.8 02:29:39 10° WNW 02:32:42 60° SSW 02:35:44 10° SE
ATLAS 5 CENTAUR R/B 2.5 02:29:42 10° WSW 02:33:30 39° NW 02:37:48 10° NNE
USA 308 3.4 02:30:00 10° WSW 02:34:11 57° NNW 02:38:24 10° NE
Spot 1 4.4 02:30:45 10° S 02:35:49 78° WSW 02:40:43 10° NNW
SeaSat 1 2.8 02:30:55 10° NNE 02:35:50 64° ESE 02:40:44 10° SSW
FALCON 9 DEB 2.8 02:36:29 10° WNW 02:39:35 68° SSW 02:42:40 10° SE
Meteor 2-6 Rocket 4.4 02:34:05 10° N 02:40:01 89° ENE 02:45:47 10° S
ADEOS Rocket 3.8 02:34:00 10° SSW 02:40:49 41° W 02:47:04 10° NNW
FALCON 9 DEB 2.9 02:39:55 10° WNW 02:42:57 52° SW 02:45:57 10° SE
Cosmos 1980 Rocket 4.5 02:40:09 10° N 02:45:02 30° NE 02:49:54 10° ESE
Cosmos 1833 Rocket 3.7 02:42:29 10° S 02:47:47 43° ESE 02:53:06 10° NE
Meteor 1-28 Rocket 4.3 02:46:18 10° SSW 02:49:31 26° W 02:52:46 10° NW
SL-16 R/B 4.0 02:45:22 10° SW 02:49:31 18° W 02:53:40 10° NW
IRS-P3 4.2 02:45:51 10° NNE 02:51:13 87° WNW 02:56:32 10° SSW
Tianhe-1 3.5 02:50:34 10° S 02:52:02 13° SSE 02:53:30 10° SE
USA 305 3.8 02:48:00 10° W 02:52:06 46° NNW 02:56:13 10° NE
Lacrosse 4 Rocket 3.2 02:51:14 10° WNW 02:53:17 14° WSW 02:55:19 10° SW
Cosmos 1125 Rocket 4.2 02:48:43 10° NW 02:53:27 35° WSW 02:58:11 10° SSW
Cosmos 1151 Rocket 3.8 02:50:47 10° NNW 02:54:38 34° W 02:58:28 10° SSW
Cosmos 883 Rocket 4.5 02:48:51 10° N 02:55:00 79° W 03:01:06 10° S
Cosmos 2266 Rocket 4.0 02:50:43 10° SSW 02:56:48 71° W 03:02:51 10° N
CZ-4B R/B 3.7 02:53:41 10° NNE 02:59:00 85° ESE 03:04:12 10° SSW
Resurs 1-4 Rocket 4.1 02:56:55 10° NNW 03:00:05 16° NW 03:03:13 10° W
ARIANE 5 R/B 2.5 02:55:07 10° NNE 03:00:09 89° W 03:05:10 10° SSW
